Location: Artiguedieu
(43.5000°N, 0.5454°E)
Time: 21:17:33
(UTC+00:00)

Vanguard 1 - Pass Details

Date: 28 July 2021
Orbit: 652 x 3831 km, 34.3° (Epoch: 19 September)

Event Time Altitude Azimuth Distance (km) Brightness Sun altitude
Rises 11:45:58 0° 234° (SW) 3,254 12.9 65.1°
Reaches altitude 10° 11:48:12 10° 224° (SW) 2,512 12.5 65.1°
Maximum altitude 11:53:31 36° 159° (SSE) 1,765 12.6 65.3°
Drops below altitude 10° 12:02:09 10° 98° (E) 4,101 13.4 65.4°
Sets 12:06:52 0° 91° (E) 5,655 14.0 65.4°
